METEOSAT-12

Last updated on Sat Dec 16 2023 00:02:17 GMT+0000 (Coordinated Universal Time)

1 54743U 22170C 23349.57703356 -.00000015 00000+0 00000+0 0 9997 2 54743 0.4150 342.9141 0001684 253.3538 51.9922 1.00268136 3803

Satellite not in orbit

METEOSAT-12